TimeCST,TemperatureF,Dew PointF,Humidity,Sea Level PressureIn,VisibilityMPH,Wind Direction,Wind SpeedMPH,Gust SpeedMPH,PrecipitationIn,Events,Conditions,WindDirDegrees,DateUTC
12:53 AM,14.0,8.1,77,30.45,10.0,Calm,Calm,-,N/A,,Clear,0,2013-01-21 06:53:00
1:53 AM,12.0,7.0,80,30.44,10.0,West,4.6,-,N/A,,Clear,280,2013-01-21 07:53:00
2:53 AM,12.0,8.1,84,30.44,10.0,Calm,Calm,-,N/A,,Scattered Clouds,0,2013-01-21 08:53:00
3:53 AM,10.9,7.0,84,30.44,10.0,Calm,Calm,-,N/A,,Clear,0,2013-01-21 09:53:00
4:53 AM,12.0,8.1,84,30.44,10.0,Calm,Calm,-,N/A,,Partly Cloudy,0,2013-01-21 10:53:00
5:53 AM,14.0,9.0,80,30.45,10.0,Calm,Calm,-,N/A,,Overcast,0,2013-01-21 11:53:00
6:53 AM,15.1,5.0,64,30.45,10.0,NNW,16.1,21.9,N/A,,Overcast,340,2013-01-21 12:53:00
7:53 AM,15.1,3.0,59,30.47,10.0,NNW,11.5,-,N/A,,Overcast,330,2013-01-21 13:53:00
8:53 AM,14.0,-2.0,49,30.48,10.0,North,13.8,19.6,N/A,,Overcast,350,2013-01-21 14:53:00
9:53 AM,12.9,-2.0,51,30.51,10.0,North,10.4,-,N/A,,Overcast,10,2013-01-21 15:53:00
10:53 AM,15.1,-4.0,43,30.51,10.0,North,11.5,-,N/A,,Overcast,350,2013-01-21 16:53:00
11:53 AM,14.0,-5.1,43,30.50,10.0,NW,9.2,-,N/A,,Overcast,320,2013-01-21 17:53:00
12:53 PM,15.1,-5.1,41,30.47,10.0,NW,10.4,-,N/A,,Overcast,320,2013-01-21 18:53:00
1:53 PM,15.1,-5.1,41,30.46,10.0,NW,9.2,-,N/A,,Overcast,320,2013-01-21 19:53:00
2:53 PM,15.1,-0.9,49,30.45,10.0,WNW,9.2,-,N/A,,Overcast,300,2013-01-21 20:53:00
3:53 PM,14.0,1.9,59,30.45,10.0,NW,8.1,-,0.00,,Overcast,320,2013-01-21 21:53:00
4:53 PM,12.9,5.0,71,30.44,4.0,NNW,6.9,-,0.00,Snow,Light Snow,340,2013-01-21 22:53:00
5:53 PM,12.9,5.0,71,30.43,10.0,NNW,6.9,-,0.00,,Overcast,330,2013-01-21 23:53:00
6:53 PM,12.0,3.9,70,30.43,10.0,NNW,4.6,-,N/A,,Overcast,330,2013-01-22 00:53:00
7:53 PM,12.9,3.0,65,30.43,10.0,NNW,4.6,-,N/A,,Overcast,340,2013-01-22 01:53:00
8:53 PM,12.9,-0.9,54,30.43,10.0,North,5.8,-,N/A,,Overcast,360,2013-01-22 02:53:00
9:53 PM,12.9,-0.9,54,30.44,10.0,ENE,3.5,-,N/A,,Overcast,60,2013-01-22 03:53:00
10:53 PM,12.9,-2.0,51,30.43,10.0,Calm,Calm,-,N/A,,Overcast,0,2013-01-22 04:53:00
11:53 PM,12.9,1.0,59,30.43,10.0,Calm,Calm,-,0.00,,Overcast,0,2013-01-22 05:53:00